TimePST,TemperatureF,Dew PointF,Humidity,Sea Level PressureIn,VisibilityMPH,Wind Direction,Wind SpeedMPH,Gust SpeedMPH,PrecipitationIn,Events,Conditions,WindDirDegrees,DateUTC
12:21 AM,37.4,35.6,93,30.32,0.2,Calm,Calm,-,N/A,Fog,Fog,0,2014-01-25 08:21:00
12:53 AM,39.9,37.9,93,30.35,0.1,SE,3.5,-,N/A,Fog,Fog,130,2014-01-25 08:53:00
1:53 AM,37.9,35.1,89,30.35,0.1,SE,5.8,-,N/A,Fog,Fog,130,2014-01-25 09:53:00
2:16 AM,35.6,33.8,93,30.32,0.1,ESE,3.5,-,N/A,Fog,Fog,120,2014-01-25 10:16:00
2:53 AM,37.9,35.1,89,30.37,0.1,Calm,Calm,-,N/A,Fog,Fog,0,2014-01-25 10:53:00
3:53 AM,37.0,34.0,89,30.38,0.1,SE,8.1,-,N/A,Fog,Fog,130,2014-01-25 11:53:00
4:25 AM,35.6,33.8,93,30.34,0.1,SE,4.6,-,N/A,Fog,Fog,140,2014-01-25 12:25:00
4:35 AM,35.6,33.8,93,30.34,0.1,ESE,5.8,-,N/A,Fog,Fog,120,2014-01-25 12:35:00
4:53 AM,35.1,33.1,92,30.38,0.1,SE,4.6,-,N/A,Fog,Fog,130,2014-01-25 12:53:00
5:00 AM,35.6,32.0,87,30.35,0.1,SE,4.6,-,N/A,Fog,Fog,130,2014-01-25 13:00:00
5:12 AM,37.4,33.8,87,30.35,6.0,SE,4.6,-,N/A,,Scattered Clouds,130,2014-01-25 13:12:00
5:53 AM,37.9,35.1,89,30.37,9.0,ESE,9.2,-,N/A,,Partly Cloudy,120,2014-01-25 13:53:00
6:53 AM,35.1,33.1,92,30.38,0.5,Calm,Calm,-,N/A,Fog,Fog,0,2014-01-25 14:53:00
7:02 AM,33.8,33.8,100,30.35,0.2,Calm,Calm,-,N/A,Fog,Fog,0,2014-01-25 15:02:00
7:41 AM,35.6,32.0,87,30.35,1.0,South,3.5,-,N/A,Fog,Patches of Fog,170,2014-01-25 15:41:00
7:53 AM,34.0,32.0,92,30.38,1.0,SSE,4.6,-,N/A,Fog,Patches of Fog,150,2014-01-25 15:53:00
8:05 AM,33.8,32.0,93,30.35,7.0,SSE,3.5,-,N/A,Fog,Patches of Fog,150,2014-01-25 16:05:00
8:53 AM,37.0,34.0,89,30.40,7.0,Calm,Calm,-,N/A,,Clear,0,2014-01-25 16:53:00
9:24 AM,35.6,33.8,93,30.38,0.8,West,4.6,-,N/A,Fog,Patches of Fog,260,2014-01-25 17:24:00
9:34 AM,37.4,33.8,87,30.38,0.2,West,3.5,-,N/A,Fog,Fog,260,2014-01-25 17:34:00
9:53 AM,37.9,36.0,93,30.41,0.2,Calm,Calm,-,N/A,Fog,Fog,0,2014-01-25 17:53:00
10:53 AM,39.9,37.9,93,30.42,0.8,Calm,Calm,-,N/A,Fog,Patches of Fog,0,2014-01-25 18:53:00
11:00 AM,41.0,39.2,93,30.39,1.0,Calm,Calm,-,N/A,Fog,Patches of Fog,0,2014-01-25 19:00:00
11:07 AM,41.0,37.4,87,30.39,4.0,Calm,Calm,-,N/A,Fog,Patches of Fog,0,2014-01-25 19:07:00
11:53 AM,43.0,39.0,86,30.41,10.0,Calm,Calm,-,N/A,,Partly Cloudy,0,2014-01-25 19:53:00
12:53 PM,50.0,37.0,61,30.39,10.0,Calm,Calm,-,N/A,,Clear,0,2014-01-25 20:53:00
1:53 PM,53.1,39.0,59,30.37,10.0,Calm,Calm,-,N/A,,Clear,0,2014-01-25 21:53:00
2:53 PM,51.1,36.0,56,30.37,10.0,West,4.6,-,N/A,,Clear,260,2014-01-25 22:53:00
3:53 PM,54.0,28.0,37,30.35,10.0,Calm,Calm,-,N/A,,Clear,0,2014-01-25 23:53:00
4:53 PM,52.0,30.9,45,30.34,10.0,Calm,Calm,-,N/A,,Clear,0,2014-01-26 00:53:00
5:53 PM,46.0,37.0,71,30.32,10.0,Calm,Calm,-,N/A,,Partly Cloudy,0,2014-01-26 01:53:00
6:53 PM,45.0,36.0,71,30.32,10.0,Calm,Calm,-,N/A,,Partly Cloudy,0,2014-01-26 02:53:00
7:53 PM,45.0,37.0,74,30.32,10.0,Calm,Calm,-,N/A,,Partly Cloudy,0,2014-01-26 03:53:00
8:53 PM,46.0,36.0,68,30.30,10.0,Calm,Calm,-,N/A,,Clear,0,2014-01-26 04:53:00
9:53 PM,45.0,34.0,65,30.30,10.0,Calm,Calm,-,N/A,,Clear,0,2014-01-26 05:53:00
10:53 PM,43.0,34.0,71,30.30,10.0,Calm,Calm,-,N/A,,Clear,0,2014-01-26 06:53:00
11:53 PM,39.0,33.1,79,30.30,10.0,Calm,Calm,-,N/A,,Clear,0,2014-01-26 07:53:00